Location: ?????
(33.6267°N, 35.4675°E)
Time: 22:46:25
(UTC+00:00)

Cosmos 2219 - Pass Details

Date: 12 November 2019
Orbit: 835 x 858 km, 71.1° (Epoch: 06 December)

Event Time Altitude Azimuth Distance (km) Brightness Sun altitude
Rises 15:36:37 0° 344° (NNW) 3,388 6.4 -12.6°
Reaches altitude 10° 15:39:08 10° 350° (N) 2,450 5.6 -13.1°
Maximum altitude 15:44:36 53° 66° (ENE) 1,019 3.3 -14.2°
Drops below altitude 10° 15:50:04 10° 143° (SE) 2,441 5.4 -15.3°
Sets 15:52:33 0° 148° (SSE) 3,374 6.1 -15.9°
